Retour au catalogue

LEAP-1

ActifScienceSSO
NORAD 65321·PAYLOAD·🇮🇳 India

Lancé Aug 26, 2025 depuis Vandenberg Space Force Base

Loading…

Prochains Passages (prochaines 24 heures)

TLE

FraisSource: Space-Track

Époque: Sep 14, 2026, 12:56 UTC

1 65321U 25188G   26257.53945671  .00001686  00000-0  17240-3 0  9991
2 65321  97.7297 330.2388 0001558 272.1662  87.9379 14.91861601 57172

Suivez LEAP-1 en temps réel avec AllMySat

Download on the App Store